Hourly Data Report for September 13, 2019

All times are specified in Local Standard Time (LST). Add 1 hour to adjust for Daylight Saving Time where and when it is observed.

EUREKA CLIMATE
NUNAVUT
Current Station Operator: ECCC - MSC

79°59'21.000" N
85°56'02.000" W
10.00 m
2401199
71613
NEK

Download Data

Hourly Data (September 2019)
Hourly Data Report for September 13, 2019
TIME Temp Definition
°C
Dew Point Definition
°C
Rel Hum Definition
%
Wind Dir Definition
10's deg

Wind Spd Definition
km/h
Visibility Definition
km
Stn Press Definition
kPa
Hmdx Definition


Wind Chill Definition


Weather Definition


00:00 -3.2 -4.4 91 10 6   101.53   -6 LegendNANA
01:00 -4.6 -6.2 88 4 8   101.53   -8 LegendNANA
02:00 -4.2 -5.2 92 7 4   101.56   -6 LegendNANA
03:00 -4.3 -5.4 92 8 4   101.57   -6 LegendNANA
04:00 -2.9 -4.0 92 13 12   101.58   -7 LegendNANA
05:00 -3.3 -4.3 93 8 10   101.60   -7 LegendNANA
06:00 -3.2 -4.5 91 6 5   101.61   -5 LegendNANA
07:00 -3.0 -4.2 91 4 5   101.61   -5 LegendNANA
08:00 -2.8 -4.3 90 9 5   101.59   -5 LegendNANA
09:00 -2.1 -3.9 88 12 3   101.56   -3 LegendNANA
10:00 -1.6 -4.5 81 29 14   101.52   -6 LegendNANA
11:00 -2.0 -4.3 84 33 13   101.52   -6 LegendNANA
12:00 -2.2 -4.4 85 29 14   101.53   -7 LegendNANA
13:00 -2.0 -4.0 86 30 21   101.50   -8 LegendNANA
14:00 -2.2 -4.2 86 29 18   101.50   -8 LegendNANA
15:00 -2.5 -4.9 84 34 10   101.50   -6 LegendNANA
16:00 -2.4 -4.7 84 3 4   101.47   -4 LegendNANA
17:00 -2.3 -4.7 83 32 2   101.45   -3 LegendNANA
18:00 -2.2 -4.2 86 27 6   101.39   -5 LegendNANA
19:00 -3.0 -4.4 89 36 6   101.36   -5 LegendNANA
20:00 -2.9 -4.2 91 34 11   101.32   -7 LegendNANA
21:00 -2.5 -3.5 93 31 11   101.28   -7 LegendNANA
22:00 -4.5 -5.5 93 35 10   101.25   -9 LegendNANA
23:00 -2.2 -3.2 93 28 18   101.20   -8 LegendNANA

Notes on Data Quality.

Legend

  • E = Estimated
  • M = Missing
  • NA = Not Available
Date modified: